This is the latest recevied weather packets stored in our database for station/object KC9MWQ-13. If no packets are shown the sender has not sent any weather packets the latest 10 day(s).
| Time | Temp. | Humidity | Pressure | Rain* | Wind** | Luminosity | Snow |
|---|---|---|---|---|---|---|---|
| 1778019048 | 8.33° C | 99% | 1009.6 hPa | 3.05 mm | - | 56 W/m² | - |
| 1778018745 | 8.33° C | 99% | 1010 hPa | 1.27 mm | - | 50 W/m² | - |
| 1778018443 | 8.33° C | 99% | 1010.1 hPa | 1.78 mm | - | 31 W/m² | - |
| 1778018141 | 8.33° C | 99% | 1009.9 hPa | 1.78 mm | - | 38 W/m² | - |
| 1778017838 | 8.33° C | 99% | 1010.3 hPa | 1.78 mm | - | 35 W/m² | - |
| 1778017536 | 8.33° C | 99% | 1010.1 hPa | 1.27 mm | - | 75 W/m² | - |
| 1778017233 | 8.33° C | 99% | 1009.9 hPa | 1.27 mm | - | 53 W/m² | - |
| 1778016931 | 8.33° C | 99% | 1010.1 hPa | 0 mm | - | 47 W/m² | - |
| 1778016627 | 8.33° C | 99% | 1009.9 hPa | 0 mm | - | 42 W/m² | - |
| 1778016323 | 8.33° C | 99% | 1009.9 hPa | 0 mm | - | 54 W/m² | - |
| 1778016021 | 8.33° C | 99% | 1010.1 hPa | 1.78 mm | - | 47 W/m² | - |
| 1778015718 | 8.33° C | 99% | 1010 hPa | 1.78 mm | - | 47 W/m² | - |
| 1778015414 | 8.33° C | 99% | 1010 hPa | 1.27 mm | - | 49 W/m² | - |
| 1778015111 | 8.33° C | 99% | 1009.9 hPa | 1.27 mm | - | 62 W/m² | - |
| 1778014808 | 8.89° C | 99% | 1010.1 hPa | 1.78 mm | - | 58 W/m² | - |
| 1778014506 | 8.89° C | 99% | 1009.6 hPa | 1.27 mm | - | 62 W/m² | - |
| 1778014203 | 8.89° C | 99% | 1009.9 hPa | 1.27 mm | - | 52 W/m² | - |
| 1778013901 | 8.89° C | 98% | 1009.9 hPa | 0 mm | - | 36 W/m² | - |
| 1778013598 | 8.89° C | 98% | 1009.9 hPa | 0 mm | - | 32 W/m² | - |
| 1778013294 | 8.89° C | 97% | 1009.7 hPa | 0 mm | - | 31 W/m² | - |
| 1778012990 | 9.44° C | 98% | 1010 hPa | 0 mm | - | 24 W/m² | - |
| 1778012688 | 9.44° C | 98% | 1009.7 hPa | 0 mm | - | 21 W/m² | - |
| 1778012383 | 9.44° C | 98% | 1009.5 hPa | 0 mm | - | 34 W/m² | - |
| 1778012080 | 9.44° C | 98% | 1009.5 hPa | 0 mm | - | 48 W/m² | - |
| 1778011778 | 9.44° C | 98% | 1009.1 hPa | 0 mm | - | 41 W/m² | - |
* Rain latest hour (hover to see other rain measurements)
** Current wind speed in m/s (hover to see current wind gust speed)